SR5NLK-1 Weather Reports


time (UTC)temp
F
wind
direction
speed
knots
gust
knots
rain 1hr
in
rain 24hr
in
rain mn
in
humidity
%
barometer
mb
20260902135944 73 270 6.1 13.0 0.00 0.00 0.00 49 1053.2
20260902135444 73 247 5.2 14.8 0.00 0.00 0.00 49 1053.3
20260902134444 75 225 4.3 16.5 0.00 0.00 0.00 47 1043.8
20260902133943 76 270 14.8 14.8 0.00 0.00 0.00 46 1065.8
20260902133444 76 270 16.5 16.5 0.00 0.00 0.00 46 1059.5
20260902132944 76 180 12.2 13.9 0.00 0.00 0.00 47 1062.7
20260902132652 76 270 8.7 16.5 0.00 0.00 0.00 48 1069.0
20260902132444 76 270 8.7 16.5 0.00 0.00 0.00 48 1069.0
20260902131944 76 225 7.8 12.2 0.00 0.00 0.00 48 1043.8
20260902131444 76 292 7.8 15.6 0.00 0.00 0.00 48 1043.8
20260902130944 75 247 13.9 18.2 0.00 0.00 0.00 48 1053.2
20260902130643 75 247 8.7 18.2 0.00 0.00 0.00 48 1050.0
20260902130444 75 247 7.0 14.8 0.00 0.00 0.00 48 1059.5
20260902125944 75 270 13.0 14.8 0.00 0.00 0.00 49 1043.8
20260902125444 74 225 8.7 14.8 0.00 0.00 0.00 50 1040.6
20260902124944 74 270 7.8 14.8 0.00 0.00 0.00 50 1053.2
20260902124444 74 270 1.7 10.4 0.00 0.00 0.00 51 1062.7
20260902123944 73 270 13.0 14.8 0.00 0.00 0.00 50 1043.8
20260902123444 73 270 9.6 14.8 0.00 0.00 0.00 50 1040.6
20260902123343 73 90 2.6 14.8 0.00 0.00 0.00 50 1043.8
20260902122944 74 270 6.1 13.9 0.00 0.00 0.00 49 1046.9
20260902121945 75 247 7.0 14.8 0.00 0.00 0.00 46 1053.2
20260902121444 77 270 8.7 21.7 0.00 0.00 0.00 43 1050.0
20260902120945 79 270 9.6 14.8 0.00 0.00 0.00 44 1053.2
20260902120444 79 247 8.7 15.6 0.00 0.00 0.00 44 1021.6
20260902120043 78 247 7.8 15.6 0.00 0.00 0.00 45 1037.5
20260902115944 78 225 7.8 13.0 0.00 0.02 0.00 45 1053.2
20260902115444 78 247 7.8 20.0 0.00 0.02 0.00 44 1043.8
20260902114944 78 247 10.4 13.9 0.00 0.02 0.00 45 1050.1
20260902113944 77 247 7.0 15.6 0.00 0.02 0.00 46 1046.9
20260902113444 77 292 4.3 15.6 0.00 0.02 0.00 46 1034.3
20260902112945 78 247 12.2 13.0 0.00 0.02 0.00 46 1043.7
20260902112743 77 135 3.5 14.8 0.00 0.02 0.00 46 1056.4
20260902112444 77 292 13.0 14.8 0.00 0.02 0.00 48 1050.1
20260902111944 77 202 8.7 13.9 0.00 0.02 0.00 47 1053.2
20260902111444 77 247 10.4 13.0 0.00 0.02 0.00 46 1043.8
20260902110944 77 247 6.1 12.2 0.00 0.02 0.00 49 1062.7
20260902110444 76 270 5.2 13.0 0.00 0.02 0.00 48 1053.2
20260902105945 75 247 9.6 17.4 0.00 0.04 0.00 48 1046.9
20260902105443 76 270 10.4 13.9 0.00 0.04 0.00 48 1037.5
20260902104944 76 270 5.2 16.5 0.00 0.04 0.00 48 1050.0
20260902104444 77 247 4.3 18.2 0.00 0.04 0.00 47 1050.1
20260902103945 78 270 18.2 19.1 0.00 0.04 0.00 48 1046.9
20260902103444 78 270 8.7 15.6 0.00 0.04 0.00 49 1053.2
20260902102944 78 270 14.8 14.8 0.00 0.04 0.00 50 1053.2
20260902102444 77 225 6.1 13.0 0.00 0.04 0.00 52 1018.5
20260902102143 76 247 8.7 15.6 0.00 0.04 0.00 51 1034.3
20260902101944 76 270 3.5 15.6 0.00 0.04 0.00 52 1056.4
20260902101444 75 315 5.2 13.0 0.00 0.04 0.00 51 1037.5
20260902100944 76 247 9.6 14.8 0.00 0.04 0.00 50 1034.3
20260902100444 77 270 14.8 18.2 0.00 0.04 0.00 49 1043.8
20260902095944 77 225 9.6 12.2 0.00 0.04 0.00 52 1031.1
20260902095445 76 247 9.6 10.4 0.00 0.04 0.00 52 1046.9
20260902094944 76 270 9.6 12.2 0.00 0.04 0.00 52 1015.4
20260902094844 76 270 11.3 12.2 0.00 0.04 0.00 53 1034.3
20260902094444 76 292 7.0 12.2 0.00 0.04 0.00 52 1027.9
20260902093944 76 247 11.3 11.3 0.00 0.04 0.00 53 1028.0
20260902093445 75 247 7.0 12.2 0.00 0.04 0.00 54 1028.0
20260902092945 75 270 7.8 14.8 0.00 0.04 0.00 53 1037.5
20260902092445 76 292 8.7 13.0 0.00 0.04 0.00 54 1015.4
20260902091945 75 180 5.2 13.0 0.00 0.04 0.00 54 1034.3
20260902091544 74 225 5.2 13.0 0.00 0.04 0.00 55 1056.4
20260902091445 74 225 5.2 9.6 0.00 0.04 0.00 55 1031.2
20260902090945 74 247 4.3 13.0 0.00 0.04 0.00 54 1021.7
20260902090445 75 202 2.6 14.8 0.00 0.04 0.00 54 1031.1
20260902085945 75 270 14.8 14.8 0.00 0.04 0.00 54 1028.0
20260902085445 75 337 2.6 13.0 0.00 0.04 0.00 55 1037.5
20260902084445 76 270 6.1 10.4 0.00 0.04 0.00 54 1043.7
20260902084244 77 315 5.2 10.4 0.00 0.04 0.00 54 1043.8
20260902083945 78 247 7.8 7.8 0.00 0.04 0.00 54 1046.9
20260902083445 78 292 3.5 11.3 0.00 0.04 0.00 53 1050.1
20260902082945 79 292 3.5 11.3 0.00 0.04 0.00 53 1031.1
20260902081945 80 270 1.7 7.0 0.00 0.04 0.00 54 1062.7
20260902081445 79 247 5.2 7.0 0.00 0.04 0.00 55 1024.8
20260902080944 79 270 2.6 8.7 0.00 0.04 0.00 55 1031.2
20260902075945 77 247 2.6 6.1 0.00 0.04 0.00 57 1031.1
20260902075445 77 270 5.2 7.0 0.00 0.04 0.00 56 1018.5
20260902074945 78 270 5.2 9.6 0.00 0.04 0.00 57 1031.1
20260902074445 78 247 3.5 9.6 0.00 0.04 0.00 57 1024.8
20260902073945 77 247 5.2 7.8 0.00 0.04 0.00 59 1028.0
20260902073644 76 270 4.3 8.7 0.00 0.04 0.00 60 1031.2
20260902073445 76 225 4.3 8.7 0.00 0.04 0.00 60 1040.6
20260902072945 76 247 3.5 9.6 0.00 0.04 0.00 60 1050.1
20260902072445 75 202 7.0 7.8 0.00 0.04 0.00 61 1031.2
20260902071945 75 202 7.0 9.6 0.00 0.04 0.00 61 1043.8
20260902071445 75 270 3.5 7.8 0.00 0.04 0.00 62 1046.9
20260902070945 75 270 5.2 5.2 0.00 0.04 0.00 66 1053.2
20260902070344 72 270 0.9 5.2 0.00 0.04 0.00 67 1050.1
20260902065945 71 225 4.3 7.0 0.00 0.04 0.00 67 1031.1
20260902064945 71 270 2.6 5.2 0.00 0.04 0.00 68 1043.8
20260902064445 71 202 2.6 7.0 0.00 0.04 0.00 67 1043.7
20260902063945 72 202 5.2 7.0 0.00 0.04 0.00 67 1040.6
20260902063445 71 180 2.6 6.1 0.00 0.04 0.00 70 1072.1
20260902063044 70 270 6.1 7.0 0.00 0.04 0.00 72 1028.0
20260902062945 69 202 3.5 7.0 0.00 0.04 0.00 73 1046.9
20260902062445 68 157 1.7 6.1 0.00 0.04 0.00 70 1056.3
20260902061945 70 225 5.2 7.8 0.00 0.04 0.00 69 1052.2
20260902061445 70 202 4.3 7.8 0.00 0.04 0.00 73 1044.9
20260902060945 67 180 2.6 5.2 0.00 0.04 0.00 77 1056.4
20260902060445 66 247 5.2 7.0 0.00 0.04 0.00 72 1022.5
20260902055945 67 202 3.5 7.8 0.00 0.04 0.00 71 1048.3
20260902055744 67 225 4.3 7.8 0.00 0.04 0.00 70 1055.5
20260902055445 68 247 1.7 7.8 0.00 0.04 0.00 69 1074.9
20260902054945 70 270 3.5 6.1 0.00 0.04 0.00 69 1068.6
20260902054445 71 202 2.6 4.3 0.00 0.04 0.00 72 1042.8
20260902053945 69 247 0.0 4.3 0.00 0.04 0.00 75 1068.6
20260902053445 68 225 2.6 6.1 0.00 0.04 0.00 78 1065.8
20260902052945 66 157 2.6 6.1 0.00 0.04 0.00 78 1061.3
20260902052444 66 202 2.6 7.0 0.00 0.04 0.00 78 1070.5
20260902051945 66 225 7.0 7.0 0.00 0.04 0.00 80 1065.9
20260902051445 66 202 3.5 7.0 0.00 0.04 0.00 82 1043.8
20260902050945 66 202 2.6 7.0 0.00 0.04 0.00 85 1075.2
20260902050445 65 202 5.2 7.0 0.00 0.04 0.00 87 1056.6
20260902045945 64 202 2.6 6.1 0.00 0.04 0.00 90 1056.3
20260902045445 64 180 3.5 5.2 0.00 0.04 0.00 91 1059.5
20260902045144 63 202 3.5 5.2 0.00 0.04 0.00 92 1084.6
20260902044945 62 202 4.3 4.3 0.00 0.04 0.00 92 1069.0
20260902044445 60 202 2.6 3.5 0.00 0.04 0.00 91 1081.6
20260902043945 58 180 0.0 3.5 0.00 0.04 0.00 90 1078.4
20260902043445 57 202 1.7 3.5 0.00 0.04 0.00 89 1065.8
20260902043032 57 202 0.9 4.3 0.00 0.04 0.00 89 1053.2
20260902042945 57 202 0.9 4.3 0.00 0.04 0.00 89 1053.2
20260902042445 56 180 1.7 2.6 0.00 0.04 0.00 88 1076.8
20260902041945 56 202 1.7 3.5 0.00 0.04 0.00 88 1030.3
20260902041844 56 180 2.6 3.5 0.00 0.04 0.00 88 1068.9
20260902041445 56 202 2.6 3.5 0.00 0.04 0.00 88 1072.1
20260902040945 56 202 0.9 1.7 0.00 0.04 0.00 88 1031.9
20260902040445 56 225 0.9 1.7 0.00 0.04 0.00 88 1070.5
20260902035945 56 180 0.9 1.7 0.00 0.04 0.00 88 1056.4
20260902035445 56 180 1.7 3.5 0.00 0.04 0.00 88 1064.2
20260902034945 56 180 1.7 4.3 0.00 0.04 0.00 88 1080.0
20260902034544 56 225 3.5 3.5 0.00 0.04 0.00 88 1085.4
20260902034445 56 202 1.7 3.5 0.00 0.04 0.00 88 1071.2
20260902033945 56 202 0.9 3.5 0.00 0.04 0.00 88 1086.2
20260902033445 56 225 1.7 4.3 0.00 0.04 0.00 88 1059.5
20260902033104 57 202 3.5 7.0 0.00 0.04 0.00 88 1073.7
20260902032945 57 225 1.7 5.2 0.00 0.04 0.00 88 1033.4
20260902032445 57 202 3.5 7.0 0.00 0.04 0.00 88 1073.7
20260902032018 57 225 2.6 4.3 0.00 0.04 0.00 88 1062.7
20260902031945 57 225 2.6 4.3 0.00 0.04 0.00 88 1062.7
20260902031445 57 225 2.6 6.1 0.00 0.04 0.00 88 1022.3
20260902031244 57 202 4.3 9.6 0.00 0.04 0.00 88 1067.4
20260902030945 57 247 1.7 9.6 0.00 0.04 0.00 88 1057.9
20260902030445 57 225 1.7 5.2 0.00 0.04 0.00 88 1056.4
20260902025945 57 180 4.3 6.1 0.00 0.04 0.00 88 1077.7
20260902025445 58 202 2.6 6.1 0.00 0.04 0.00 88 1011.1
20260902024945 58 202 4.3 6.1 0.00 0.04 0.00 88 1050.1
20260902024445 58 247 4.3 6.1 0.00 0.04 0.00 88 1078.4
20260902023944 57 202 3.5 6.1 0.00 0.04 0.00 88 1072.2
20260902023445 57 180 2.6 4.3 0.00 0.04 0.00 88 1065.8
20260902022945 57 180 2.6 5.2 0.00 0.04 0.00 88 1082.8
20260902022445 57 180 2.6 5.2 0.00 0.04 0.00 87 1053.2
20260902021945 57 202 1.7 5.2 0.00 0.04 0.00 87 1084.6
20260902021445 57 180 2.6 3.5 0.00 0.04 0.00 87 1059.6
20260902020945 57 202 1.7 6.1 0.00 0.04 0.00 87 1050.1
20260902020644 57 202 3.5 6.1 0.00 0.04 0.00 87 1075.3
20260902020445 57 202 5.2 5.2 0.00 0.04 0.00 87 1036.7
20260902015945 57 202 3.5 6.1 0.00 0.04 0.00 87 1022.4
20260902015445 57 202 4.3 5.2 0.00 0.04 0.00 87 1034.9
20260902014945 57 180 3.5 5.2 0.00 0.04 0.00 87 1004.7
20260902014445 57 180 3.5 7.0 0.00 0.04 0.00 87 1078.4
20260902013945 57 225 7.0 7.0 0.00 0.04 0.00 87 1063.9
20260902013445 58 225 5.2 7.0 0.00 0.04 0.00 87 1031.0
20260902013344 58 180 5.2 8.7 0.00 0.04 0.00 87 1056.4
20260902012945 58 225 5.2 8.7 0.00 0.04 0.00 87 1070.5
20260902012445 58 202 7.0 8.7 0.00 0.04 0.00 86 1050.1
20260902011945 58 202 3.5 7.0 0.00 0.04 0.00 86 1056.4
20260902011445 58 202 5.2 8.7 0.00 0.04 0.00 86 1069.0
20260902010945 58 270 5.2 7.8 0.00 0.04 0.00 86 1056.4
20260902010446 58 202 1.7 6.1 0.00 0.04 0.00 86 1027.2
20260902010044 58 247 3.5 7.8 0.00 0.04 0.00 87 1034.2
20260902005945 58 247 1.7 7.8 0.00 0.04 0.00 87 1034.2
20260902005445 58 247 3.5 8.7 0.00 0.04 0.00 86 1059.5
20260902004945 58 225 8.7 8.7 0.00 0.04 0.00 86 1057.9
20260902004445 58 180 4.3 7.8 0.00 0.04 0.00 86 1035.1
20260902003946 58 225 2.6 7.0 0.00 0.04 0.00 86 1075.3
20260902003445 58 202 3.5 6.1 0.00 0.04 0.00 86 1062.7
20260902002945 58 202 4.3 6.1 0.00 0.04 0.00 86 1062.7
20260902002744 58 180 4.3 4.3 0.00 0.04 0.00 86 1065.8
20260902002445 58 202 3.5 3.5 0.00 0.04 0.00 86 1065.8
20260902001945 59 202 2.6 3.5 0.00 0.04 0.00 86 1059.3
20260902001445 59 202 3.5 5.2 0.00 0.04 0.00 86 1056.4
20260902000945 59 225 2.6 7.8 0.00 0.04 0.00 86 1059.5
20260902000445 59 247 7.8 7.8 0.00 0.04 0.00 86 1086.2
20260901235945 59 202 3.5 6.1 0.00 0.04 0.00 86 1023.0
20260901235445 59 202 3.5 5.2 0.00 0.04 0.00 86 1078.3
20260901234946 59 202 4.3 5.2 0.00 0.04 0.00 86 1059.5
20260901234446 59 225 4.3 5.2 0.00 0.04 0.00 86 1053.2
20260901233946 59 225 4.3 6.1 0.00 0.04 0.00 86 1046.9
20260901233446 59 225 3.5 5.2 0.00 0.04 0.00 86 1050.1
20260901232946 59 225 3.5 5.2 0.00 0.04 0.00 86 1065.8
20260901232446 59 247 3.5 5.2 0.00 0.04 0.00 86 1070.5
20260901232145 59 225 5.2 7.0 0.00 0.04 0.00 86 1046.9
20260901231946 59 225 3.5 7.0 0.00 0.04 0.00 86 1073.6
20260901231446 59 247 4.3 9.6 0.00 0.04 0.00 86 1062.7
20260901230946 59 202 3.5 6.1 0.00 0.04 0.00 86 1059.5
20260901230446 59 202 3.5 7.8 0.00 0.04 0.00 86 1059.5
20260901225946 59 225 2.6 8.7 0.00 0.04 0.00 86 1073.7
20260901225446 59 202 4.3 7.8 0.00 0.04 0.00 86 1028.8
20260901224946 59 225 2.6 7.0 0.00 0.04 0.00 86 1044.5
20260901224845 59 225 5.2 7.0 0.00 0.04 0.00 86 1053.2
20260901224446 59 270 4.3 7.0 0.00 0.04 0.00 86 1064.2
20260901223946 59 247 7.8 7.8 0.00 0.04 0.00 86 1056.3
20260901223446 59 247 2.6 7.0 0.00 0.04 0.00 86 1067.4
20260901222946 59 247 6.1 7.0 0.00 0.04 0.00 86 1059.5
20260901222446 59 225 2.6 7.0 0.00 0.04 0.00 86 1081.5
20260901221946 59 225 5.2 7.0 0.00 0.04 0.00 86 1064.3
20260901221545 59 270 7.0 7.0 0.00 0.04 0.00 86 1073.6
20260901221446 59 225 4.3 7.0 0.00 0.04 0.00 86 1081.4
20260901220946 59 270 6.1 8.7 0.00 0.04 0.00 86 1075.2
20260901220446 59 247 7.8 8.7 0.00 0.04 0.00 86 1065.2
20260901215946 59 225 4.3 8.7 0.00 0.04 0.00 86 1084.7
20260901215446 58 225 2.6 8.7 0.00 0.04 0.00 85 1062.6
20260901214946 58 225 3.5 7.0 0.00 0.04 0.00 85 1050.0
20260901214446 59 270 4.3 7.8 0.00 0.04 0.00 85 1069.0
20260901214245 59 202 2.6 6.1 0.00 0.04 0.00 85 1046.9
20260901213946 59 225 4.3 6.1 0.00 0.04 0.00 85 1073.9
20260901213446 59 202 5.2 7.8 0.00 0.04 0.00 85 1076.8
20260901212946 59 202 5.2 7.0 0.00 0.04 0.00 85 1070.5
20260901212446 59 247 7.0 7.0 0.00 0.04 0.00 85 1064.8
20260901211946 59 247 4.3 7.8 0.00 0.04 0.00 84 1078.4
20260901211446 59 202 5.2 7.0 0.00 0.04 0.00 84 991.7
20260901210945 59 225 7.0 7.8 0.00 0.04 0.00 84 1059.5
20260901210446 59 202 7.0 7.0 0.00 0.04 0.00 84 1051.7
20260901205946 59 202 4.3 5.2 0.00 0.04 0.00 84 1059.5
20260901205446 59 247 4.3 5.2 0.00 0.04 0.00 84 1059.5
20260901204946 60 225 3.5 5.2 0.00 0.04 0.00 83 1072.2
20260901204446 60 225 1.7 3.5 0.00 0.04 0.00 83 1048.5
20260901203946 60 225 1.7 4.3 0.00 0.04 0.00 83 1080.0
20260901203645 60 225 1.7 4.3 0.00 0.04 0.00 83 1076.8
20260901203446 60 247 1.7 4.3 0.00 0.04 0.00 83 1050.1
20260901202946 60 247 3.5 4.3 0.00 0.04 0.00 83 1072.1
20260901202446 60 247 2.6 6.1 0.00 0.04 0.00 82 1069.0
20260901201946 60 247 3.5 6.1 0.00 0.04 0.00 82 1064.2
20260901201446 60 202 3.5 5.2 0.00 0.04 0.00 82 1067.5
20260901200946 60 157 1.7 6.1 0.00 0.04 0.00 82 1053.2
20260901200446 60 202 3.5 6.1 0.00 0.04 0.00 82 1079.5
20260901200345 60 202 4.3 6.1 0.00 0.04 0.00 82 1013.0
20260901195946 60 202 5.2 9.6 0.00 0.04 0.00 82 1057.9
20260901195446 61 202 4.3 7.0 0.00 0.04 0.00 81 1065.8
20260901194946 61 202 2.6 7.0 0.00 0.04 0.00 81 1069.0
20260901194446 61 202 3.5 7.8 0.00 0.04 0.00 81 1081.5
20260901193946 61 135 1.7 6.1 0.00 0.04 0.00 81 1050.1
20260901193446 61 202 3.5 7.0 0.00 0.04 0.00 80 1075.3
20260901193045 61 202 3.5 6.1 0.00 0.04 0.00 80 1062.7
20260901192946 61 202 2.6 6.1 0.00 0.04 0.00 80 1059.5
20260901192446 61 202 2.6 5.2 0.00 0.04 0.00 79 1046.9
20260901191946 62 247 1.7 5.2 0.00 0.04 0.00 79 1062.7
20260901191446 62 202 2.6 5.2 0.00 0.04 0.00 79 1081.5
20260901190946 62 202 3.5 5.2 0.00 0.04 0.00 79 1065.5
20260901190446 62 202 3.5 5.2 0.00 0.04 0.00 79 1050.1
20260901185946 62 202 4.3 4.3 0.00 0.04 0.00 79 1053.2
20260901185745 62 180 3.5 6.1 0.00 0.04 0.00 79 1065.8
20260901185447 62 202 3.5 6.1 0.00 0.04 0.00 78 1070.7
20260901184946 62 225 3.5 7.8 0.00 0.04 0.00 78 1043.8
20260901184446 62 202 4.3 6.1 0.00 0.04 0.00 77 1042.8
20260901183946 62 180 6.1 8.7 0.00 0.04 0.00 77 1025.6
20260901183446 63 202 8.7 10.4 0.00 0.04 0.00 77 1056.4
20260901182946 63 225 6.1 8.7 0.00 0.04 0.00 76 1046.9
20260901182445 63 157 4.3 7.0 0.00 0.04 0.00 76 1081.5
20260901181946 64 292 5.2 6.1 0.00 0.04 0.00 76 1039.8
20260901181446 64 247 1.7 8.7 0.00 0.04 0.00 75 1063.3
20260901180946 64 225 2.6 13.0 0.00 0.04 0.00 75 1065.8
20260901180446 64 202 7.8 7.8 0.00 0.04 0.00 74 1070.2
20260901175946 64 202 4.3 8.7 0.00 0.04 0.00 74 1059.5
20260901175446 65 225 2.6 9.6 0.00 0.04 0.00 73 1048.7
20260901175145 65 247 3.5 10.4 0.00 0.04 0.00 72 1084.7
20260901174946 65 225 2.6 10.4 0.00 0.04 0.00 72 1065.8
20260901174446 65 225 1.7 10.4 0.00 0.04 0.00 71 1053.2
20260901173946 66 202 7.8 11.3 0.00 0.04 0.00 70 1066.0
20260901173446 66 225 3.5 8.7 0.00 0.04 0.00 69 1054.8
20260901172946 66 247 7.8 8.7 0.00 0.04 0.00 69 1013.0
20260901172446 66 180 4.3 9.6 0.00 0.04 0.00 68 1056.4
20260901171946 66 180 3.5 7.8 0.00 0.04 0.00 67 1030.3
20260901171845 66 270 7.0 7.8 0.00 0.04 0.00 68 1064.3
20260901171446 66 270 4.3 7.8 0.00 0.04 0.00 67 1073.7
20260901170946 67 225 7.0 11.3 0.00 0.04 0.00 66 1062.7
20260901170446 67 247 7.8 9.6 0.00 0.04 0.00 65 1046.9
20260901165946 68 225 5.2 8.7 0.00 0.04 0.00 64 1055.2
20260901165446 68 247 3.5 7.0 0.00 0.04 0.00 64 1040.6
20260901164946 69 225 5.2 6.1 0.00 0.04 0.00 63 1076.8
20260901164545 69 225 5.2 5.2 0.00 0.04 0.00 63 1070.5
20260901164446 69 225 3.5 5.2 0.00 0.04 0.00 63 1067.1
20260901163946 69 202 3.5 4.3 0.00 0.04 0.00 63 1053.2
20260901163446 69 292 1.7 4.3 0.00 0.04 0.00 63 1046.9
20260901162946 69 225 1.7 5.2 0.00 0.04 0.00 63 1084.7
20260901162446 69 270 3.5 3.5 0.00 0.04 0.00 62 1028.7
20260901161946 69 315 2.6 7.0 0.00 0.04 0.00 62 1065.8
20260901161446 69 270 2.6 7.0 0.00 0.04 0.00 61 1069.0
20260901161245 69 225 2.6 7.0 0.00 0.04 0.00 61 1070.5
20260901160946 69 270 3.5 11.3 0.00 0.04 0.00 61 1053.2
20260901160446 70 22 2.6 10.4 0.00 0.04 0.00 60 1083.1
20260901155946 70 270 7.0 13.9 0.00 0.04 0.00 60 1084.7
20260901154947 70 270 5.2 9.6 0.00 0.04 0.00 60 1062.7
20260901154446 70 315 5.2 14.8 0.00 0.04 0.00 59 1013.0
20260901153945 70 270 7.0 14.8 0.00 0.04 0.00 58 1076.9
20260901153446 71 270 6.1 14.8 0.00 0.04 0.00 57 1026.1
20260901152946 71 270 13.9 17.4 0.00 0.04 0.00 57 1067.4
20260901152447 71 270 12.2 17.4 0.00 0.04 0.00 56 1056.4
20260901151947 71 270 12.2 21.7 0.00 0.04 0.00 56 1050.1
20260901151446 71 247 14.8 15.6 0.00 0.04 0.00 56 983.8
20260901150946 72 247 15.6 16.5 0.00 0.04 0.00 56 1068.6
20260901150645 72 270 8.7 20.0 0.00 0.04 0.00 56 1047.6
20260901150446 72 270 10.4 20.0 0.00 0.04 0.00 57 1038.2
20260901145946 72 225 13.9 18.2 0.00 0.04 0.00 57 1046.9
20260901145446 71 225 7.8 14.8 0.00 0.04 0.00 59 1064.2
20260901144946 72 225 2.6 15.6 0.00 0.04 0.00 58 1019.3
20260901144447 72 247 6.1 13.0 0.00 0.04 0.00 57 1065.8
20260901143946 73 225 8.7 18.2 0.00 0.04 0.00 57 1073.8
20260901143446 72 225 10.4 14.8 0.00 0.04 0.00 60 1016.2
20260901143345 72 270 14.8 14.8 0.00 0.04 0.00 60 1075.3
20260901142946 72 337 3.5 13.9 0.00 0.04 0.00 60 1073.7
20260901142447 71 225 11.3 14.8 0.00 0.04 0.00 59 1056.5
20260901141947 71 270 7.8 15.6 0.00 0.04 0.00 60 1055.2
20260901141447 71 202 8.7 18.2 0.00 0.04 0.00 60 1075.2
20260901140947 71 270 5.2 15.6 0.00 0.04 0.00 59 1020.9
20260901140447 72 270 13.9 15.6 0.00 0.04 0.00 59 1065.8